Regional Weather Roundup
Issued by NWS State College, PA

Home | Current Version | Previous Version | Graphics & Text | Print | Product List | Glossary On
Versions: 1 2 3 4 5 6 7 8 9 10 11 12 13 14 15 16 17 18 19 20 21 22 23 24 25 26 27 28 29 30 31 32 33 34 35 36 37 38 39 40 41 42 43 44 45 46 47 48 49 50
000
ASUS41 KCTP 300310
RWRCTP

REGIONAL WEATHER ROUNDUP
NATIONAL WEATHER SERVICE STATE COLLEGE PA
1100 PM EDT MON MAY 29 2017

Note: "fair" indicates few or no clouds below 12,000 feet with no
significant weather and/or obstructions to visibility.

* = STATION THAT DOES NOT REPORT PRECIPITATION /E.G. RAIN...SNOW...ETC/
    THUNDER OR FOG.

PAZ002>004-007>009-013>016-020>023-029>032-300400-
WESTERN PENNSYLVANIA

CITY           SKY/WX    TMP DP  RH WIND       PRES   REMARKS
ERIE           CLOUDY    64  55  72 S7        29.90S
MEADVILLE      CLEAR     63  53  70 S5        29.94S
FRANKLIN*      CLEAR     61  46  59 SW8       29.97S
NEW CASTLE     FAIR      61  56  83 SE6       29.96R
BEAVER COUNTY  NOT AVBL
BUTLER*        MOCLDY    61  55  82 CALM      29.98R
PITTSBURGH INT MOCLDY    65  57  75 S5        29.96S
PITTSBURGH     CLOUDY    66  55  67 S6        29.98R
INDIANA*       PTCLDY    61  59  94 CALM      30.03F
LATROBE        CLOUDY    64  59  82 CALM      30.00S
WASHINGTON CO* CLOUDY    63  59  88 CALM      30.00S
$$

PAZ004>006-010>012-017>019-024>028-033>037-041-042-045-046-049>053-300400-
CENTRAL PENNSYLVANIA

CITY           SKY/WX    TMP DP  RH WIND       PRES   REMARKS
BRADFORD       CLEAR     62  49  62 S3        29.99R
DUBOIS         PTCLDY    63  48  58 SW3       29.99R
CLEARFIELD     MOCLDY    60  55  83 N5        30.00R
JOHNSTOWN      MOCLDY    65  52  62 S7        30.03R
ALTOONA        MOCLDY    64  55  72 W3        30.02R
STATE COLLEGE  PTCLDY    66  53  62 CALM      29.99S
WILLIAMSPORT   MOCLDY    63  59  87 E6        29.99R
SELINSGROVE    CLOUDY    63  61  93 S6        30.02R
FT INDIANTOWN  CLOUDY    60  60 100 E5        30.04R FOG
CAPITAL CITY   CLOUDY    67  61  81 E8        30.03R
HARRISBURG     CLOUDY    66  62  87 E10       30.02R
YORK           CLOUDY    65  64  97 SE7       30.02R
$$

PAZ038>040-043-044-047-048-054-055-060>062-067>071-300400-
EASTERN PENNSYLVANIA

CITY           SKY/WX    TMP DP  RH WIND       PRES   REMARKS
SCRANTON       CLOUDY    60  56  86 CALM      30.03R
MOUNT POCONO   FOG       51  51 100 SE8       30.06S VSB 1/4
ALLENTOWN      CLOUDY    58  53  84 E6        30.07R
QUAKERTOWN*    CLOUDY    57  55  94 SE5       30.08S
READING        CLOUDY    60  59  96 SE8       30.04R
LANCASTER      CLOUDY    63  62  97 SE12      30.05R
COATESVILLE    CLOUDY    59  59 100 SE8       30.08R FOG
POTTSTOWN      CLOUDY    57  55  93 VRB5      30.08R
BLUE BELL      CLOUDY    55  54  94 SE7       30.10R
DOYLESTOWN     CLOUDY    55  53  93 CALM      30.07S
WILLOW GROVE   NOT AVBL
NORTH PHILA    CLOUDY    58  53  84 E10       30.09S
PHILADELPHIA   CLOUDY    58  54  86 SE8       30.09R
$$




USA.gov is the U.S. government's official web portal to all federal, state and local government web resources and services.